This is the latest recevied weather packets stored in our database for station/object KF6RAL-6. If no packets are shown the sender has not sent any weather packets the latest 10 day(s).
| Time | Temp. | Humidity | Pressure | Rain* | Wind** | Luminosity | Snow |
|---|---|---|---|---|---|---|---|
| 1777572764 | 11.67° C | 64% | 1018.1 hPa | 0 mm | - | - | - |
| 1777572343 | 11.67° C | 64% | 1018.1 hPa | 0 mm | - | - | - |
| 1777571983 | 11.67° C | 66% | 1018.2 hPa | 0 mm | - | - | - |
| 1777571922 | 11.67° C | 66% | 1018.2 hPa | 0 mm | - | - | - |
| 1777571501 | 11.67° C | 66% | 1018.2 hPa | 0 mm | - | - | - |
| 1777571083 | 11.67° C | 67% | 1017.9 hPa | 0 mm | - | - | - |
| 1777570659 | 11.67° C | 68% | 1017.9 hPa | 0 mm | - | - | - |
| 1777570238 | 11.67° C | 68% | 1017.9 hPa | 0 mm | - | - | - |
| 1777569818 | 11.67° C | 66% | 1017.9 hPa | 0 mm | - | - | - |
| 1777569396 | 11.11° C | 66% | 1017.8 hPa | 0 mm | - | - | - |
| 1777568975 | 11.67° C | 67% | 1017.9 hPa | 0 mm | - | - | - |
| 1777568554 | 11.11° C | 66% | 1017.8 hPa | 0 mm | - | - | - |
| 1777568133 | 11.11° C | 65% | 1017.9 hPa | 0 mm | - | - | - |
| 1777567712 | 11.11° C | 64% | 1017.7 hPa | 0 mm | - | - | - |
| 1777567291 | 10.56° C | 65% | 1018 hPa | 0 mm | - | - | - |
| 1777566870 | 11.11° C | 65% | 1017.7 hPa | 0 mm | - | - | - |
| 1777566449 | 11.11° C | 64% | 1017.7 hPa | 0 mm | - | - | - |
| 1777566028 | 11.11° C | 64% | 1017.6 hPa | 0 mm | - | - | - |
| 1777565607 | 11.11° C | 64% | 1017.6 hPa | 0 mm | - | - | - |
| 1777565186 | 11.67° C | 62% | 1017.6 hPa | 0 mm | - | - | - |
| 1777564765 | 12.22° C | 61% | 1018.1 hPa | 0 mm | - | - | - |
| 1777563923 | 11.67° C | 62% | 1017.5 hPa | 0 mm | - | - | - |
| 1777563501 | 11.67° C | 62% | 1017.5 hPa | 0 mm | - | - | - |
| 1777563080 | 11.67° C | 64% | 1018.4 hPa | 0 mm | - | - | - |
| 1777562660 | 11.11° C | 65% | 1018.5 hPa | 0 mm | - | - | - |
* Rain latest hour (hover to see other rain measurements)
** Current wind speed in m/s (hover to see current wind gust speed)